[[{"header":{"parameterUnit":"m.s-1","parameterCategory":2,"la1":30.2991,"la2":30.254,"lo1":-89.0895,"lo2":-89.0444,"dx":0.0017,"dy":0.0017,"nx":28,"ny":28,"refTime":"2022-12-05T15:00:00:Z","depth":"0","parameterNumber":2,"parameterNumberName":"U-component_of_CURRENTS"},"data":[0,0,0,0,0,0,0,0,0,0,0,0,0,0,0,0,0,0,0,0,0,0,0,0,0,0,0,0,0,0,0,0,0,0,0,0,0,0,0,0,0,0,0,0,0,0,0,0,0,0,0,0,0,0,0,0,0,0,-0.0302,-0.03,0,-0.0086,-0.0083,-0.0081,-0.002,-0.0021,-0.0023,-0.0024,0.0066,0.0069,0.0073,0,0,0,0,0,0,0,0,0,0,0,0,0,-0.0404,-0.0404,-0.0302,-0.03,-0.0297,-0.0087,-0.0083,-0.008,-0.002,-0.0021,-0.0023,-0.0025,0.0064,0.0069,0.0074,0,0,0,0,0,0,0,0,0,0,0,0,0,-0.0289,-0.0404,-0.0303,-0.0245,-0.0237,-0.0087,-0.0083,-0.0079,-0.0019,-0.0022,-0.0024,-0.0026,0.0063,0.0068,0.0074,0.0155,0,0,0.0092,0.0094,0,0,0,0,0,0,0,0,-0.0296,-0.0285,-0.0255,-0.0248,-0.024,-0.0085,-0.0086,-0.0008,-0.0019,-0.0098,-0.0024,-0.0027,0.0003,0.0013,0.0066,0.016,0.0163,0.0092,0.0096,0.0098,0.01,0,0,0,0,0,0,0,-0.0304,-0.0292,-0.0213,-0.0253,-0.0243,-0.0141,-0.0129,-0.0069,-0.0037,-0.0092,-0.0087,-0.0068,0.0006,0.0061,0.0068,0.0165,0.0092,0.0097,0.0101,0.0103,0.0446,0.0451,0,0,0,0,0,0,-0.0349,-0.0301,-0.022,-0.0207,-0.0278,-0.0139,-0.0125,-0.013,-0.0035,-0.0022,-0.0067,-0.0066,0.0052,0.0061,0.0071,0.033,0.0098,0.0103,0.0107,0.044,0.0447,0.0453,0,0,0,0,0,0,-0.0352,-0.0344,-0.0229,-0.025,-0.0229,-0.0137,-0.0141,-0.0124,-0.0064,-0.0015,-0.0005,-0.0024,0.005,0.0063,0.0193,0.0326,0.0106,0.0111,0.0434,0.0442,0.045,0.0744,0,0,0,0,0,0,-0.0356,-0.0347,-0.0351,-0.0254,-0.023,-0.011,-0.0138,-0.0119,-0.0051,-0.0048,0.0025,0.0031,0.005,0.0185,0.0199,0.033,0.0116,0.0426,0.0438,0.0448,0.0728,0.0762,0.0791,0,0,0,0,0,-0.0361,-0.0331,-0.0353,-0.0342,-0.0244,-0.0107,-0.0081,-0.0021,-0.0047,0.0016,0.0084,0.0029,0.026,0.0196,0.021,0.0346,0.0421,0.0434,0.0447,0.0713,0.0755,0.0791,0,0,0,0,0,0,-0.0319,-0.032,-0.0342,-0.0303,-0.0213,-0.0098,-0.0034,-0.0011,0.0095,0.0098,0.0114,0.0131,0.0309,0.0272,0.0198,0.0472,0.0327,0.0343,0.0525,0.0564,0.0595,0.0647,0.012,0,0,0,0,0,-0.0333,-0.0349,-0.0285,-0.0245,-0.0211,-0.0131,-0.007,-0.002,0.0076,0.0119,0.0178,0.0248,0.0377,0.0418,0.0513,0.0647,0.0646,0.0737,0.0769,0.0796,0.0848,0.0972,0.1021,0.0495,0.0495,0.0495,0,0,-0.03,-0.0305,-0.0306,-0.0244,-0.018,-0.0027,-0.0096,0.0022,0.0176,0.0112,0.0327,0.0375,0.0442,0.064,0.0708,0.0618,0.0946,0.0812,0.0836,0.0873,0.0991,0.1042,0.1088,0.0504,0.0502,0.0501,0,0,-0.016,-0.0251,-0.017,-0.0101,-0.0007,0.0046,0.0077,0.0206,0.0276,0.0467,0.0496,0.0642,0.0765,0.09,0.0966,0.122,0.113,0.1198,0.1391,0.1513,0.1558,0.1597,0.1665,0.1708,0.1191,0.1191,0.1192,0,-0.0094,-0.0008,-0.0103,0.0037,0.012,0.0088,0.0278,0.0368,0.0538,0.0614,0.0565,0.0862,0.0929,0.1207,0.1324,0.1307,0.1306,0.1244,0.1558,0.1596,0.1632,0.1691,0.1735,0.1207,0.1205,0.1204,0.1202,0,0.0154,0.0226,0.0292,0.0416,0.0484,0.0634,0.0712,0.0803,0.0835,0.0929,0.1163,0.1271,0.1419,0.1487,0.1506,0.1797,0.1695,0.1604,0.1463,0.1703,0.1749,0.179,0.123,0.1224,0.1219,0.1215,0,0,0.0397,0.0447,0.0504,0.0558,0.0691,0.0767,0.0974,0.1154,0.1245,0.1406,0.1575,0.1872,0.1835,0.1913,0.1932,0.2073,0.2363,0.1952,0.1951,0.2027,0.2586,0.2497,0.253,0.2294,0.2303,0.231,0.2518,0,0.068,0.0903,0.0897,0.115,0.1261,0.1241,0.1401,0.152,0.1582,0.1713,0.1843,0.2002,0.2015,0.2056,0.2233,0.2304,0.248,0.2313,0.2336,0.2338,0.2237,0.258,0.2529,0.2709,0.2556,0.2563,0.2567,0,0.103,0.1089,0.1328,0.1388,0.144,0.1567,0.1676,0.182,0.1959,0.1997,0.2153,0.2176,0.2456,0.2369,0.2698,0.2561,0.2647,0.27,0.2705,0.2555,0.2329,0.2444,0.2786,0.2772,0.2628,0.2623,0.2619,0,0.1208,0.1428,0.1559,0.161,0.1684,0.1759,0.1808,0.1915,0.1973,0.2143,0.2167,0.2435,0.2518,0.2712,0.2826,0.2767,0.3105,0.3005,0.3034,0.3022,0.2959,0.2929,0.3305,0.3307,0.3307,0.3306,0.3306,0,0.1495,0.1617,0.1619,0.1682,0.1791,0.183,0.1936,0.1998,0.2087,0.2155,0.2285,0.2372,0.2606,0.2769,0.2898,0.3089,0.3167,0.318,0.3128,0.3055,0.3032,0.2987,0.2958,0.3314,0.3312,0.3311,0.3309,0,0.1624,0.1673,0.1773,0.1833,0.1848,0.1889,0.1912,0.1964,0.2057,0.2139,0.2188,0.2372,0.2591,0.2784,0.3073,0.3149,0.3294,0.3382,0.3255,0.3189,0.3187,0.3174,0.3269,0.3229,0.3499,0.3499,0.3499,0,0.1667,0.174,0.1787,0.1789,0.1794,0.1841,0.1852,0.1931,0.1966,0.2121,0.2161,0.2386,0.2523,0.2888,0.311,0.3361,0.33,0.3426,0.3374,0.3299,0.3247,0.3026,0.2969,0.3404,0.3404,0.3403,0.3402,0,0.1682,0.1696,0.1714,0.1737,0.1745,0.1755,0.1787,0.1811,0.1911,0.1998,0.2127,0.2252,0.2587,0.2834,0.3133,0.328,0.3304,0.3416,0.3425,0.3338,0.3045,0.2936,0.3095,0.3396,0.3397,0.3397,0.3398,0.3398,0.1613,0.161,0.1632,0.1652,0.1654,0.1665,0.1666,0.172,0.1783,0.1903,0.2045,0.221,0.2591,0.3019,0.312,0.3339,0.3276,0.3381,0.341,0.3218,0.3101,0.3224,0.3386,0.3387,0.3387,0.3388,0.3388,0,0.152,0.1537,0.1544,0.1561,0.1547,0.1584,0.1609,0.1617,0.1676,0.1821,0.1943,0.2298,0.2614,0.2915,0.3311,0.3358,0.3212,0.3359,0.3122,0.3102,0.3339,0.3257,0.3293,0.3293,0.3293,0.3293,0.3293,0.3293,0.1465,0.1456,0.1487,0.1455,0.1465,0.1437,0.1443,0.1479,0.1563,0.1732,0.19,0.2052,0.2508,0.3104,0.3367,0.3346,0.3236,0.3111,0.3114,0.3372,0.3375,0.3379,0.3301,0.3346,0.3346,0.2744,0.274,0.2738]},{"header":{"parameterUnit":"m.s-1","parameterCategory":2,"la1":30.2991,"la2":30.254,"lo1":-89.0895,"lo2":-89.0444,"dx":0.0017,"dy":0.0017,"nx":28,"ny":28,"refTime":"2022-12-05T15:00:00:Z","depth":"0","parameterNumber":3,"parameterNumberName":"V-component_of_CURRENTS"},"data":[0,0,0,0,0,0,0,0,0,0,0,0,0,0,0,0,0,0,0,0,0,0,0,0,0,0,0,0,0,0,0,0,0,0,0,0,0,0,0,0,0,0,0,0,0,0,0,0,0,0,0,0,0,0,0,0,0,0,0.0403,0.0404,0,0.0542,0.0543,0.0545,0.0608,0.0608,0.0608,0.0608,0.0595,0.0594,0.0594,0,0,0,0,0,0,0,0,0,0,0,0,0,0.0143,0.0148,0.0402,0.0404,0.0406,0.0542,0.0544,0.0545,0.0608,0.0608,0.0608,0.0609,0.0595,0.0594,0.0594,0,0,0,0,0,0,0,0,0,0,0,0,0,0.0265,0.0149,0.0402,0.0456,0.0462,0.0541,0.0544,0.0546,0.0608,0.0608,0.0608,0.0609,0.0595,0.0594,0.0594,0.0589,0,0,0.0592,0.0592,0,0,0,0,0,0,0,0,0.0258,0.0274,0.0446,0.0452,0.0459,0.056,0.0448,0.0553,0.0608,0.0551,0.0608,0.0609,0.057,0.0572,0.0597,0.0588,0.0587,0.0592,0.0592,0.0591,0.0591,0,0,0,0,0,0,0,0.0249,0.0268,0.0456,0.0448,0.0456,0.0457,0.0474,0.0468,0.0554,0.0556,0.0561,0.058,0.0572,0.0598,0.0597,0.0587,0.0592,0.0591,0.0591,0.0591,0.0643,0.0645,0,0,0,0,0,0,0.024,0.0261,0.0451,0.046,0.0359,0.0462,0.0481,0.0526,0.0557,0.0564,0.058,0.0582,0.0599,0.0597,0.0596,0.0716,0.0591,0.0591,0.059,0.0641,0.0644,0.0645,0,0,0,0,0,0,0.0234,0.0257,0.0446,0.0363,0.0387,0.0467,0.0516,0.0528,0.057,0.0578,0.0581,0.061,0.0599,0.0597,0.062,0.071,0.059,0.059,0.0639,0.0642,0.0645,0.0873,0,0,0,0,0,0,0.0227,0.0254,0.0265,0.0364,0.0392,0.0535,0.0516,0.0531,0.0581,0.0586,0.0604,0.0602,0.0598,0.0621,0.0619,0.0707,0.0589,0.0637,0.0641,0.0644,0.0864,0.0883,0.09,0,0,0,0,0,0.0217,0.025,0.0266,0.0288,0.0412,0.0538,0.0554,0.0605,0.0582,0.0634,0.0628,0.0603,0.064,0.0622,0.0619,0.071,0.0636,0.064,0.0643,0.0855,0.088,0.09,0,0,0,0,0,0,0.0128,0.0263,0.0282,0.0348,0.045,0.055,0.0607,0.0611,0.0649,0.0656,0.0623,0.0624,0.0684,0.0641,0.062,0.0726,0.0634,0.0638,0.0796,0.0818,0.0837,0.0884,0.0589,0,0,0,0,0,0.0116,0.0198,0.0309,0.037,0.0437,0.0514,0.0559,0.0607,0.0658,0.0677,0.0675,0.0673,0.0697,0.0711,0.072,0.0767,0.0719,0.0817,0.0836,0.0852,0.0885,0.0874,0.0896,0.0659,0.0658,0.0658,0,0,0.0094,0.0184,0.0222,0.0359,0.0454,0.0589,0.0546,0.0665,0.0749,0.0664,0.0758,0.0738,0.0718,0.0799,0.0821,0.0778,0.0892,0.0857,0.0873,0.0896,0.0881,0.0904,0.0925,0.0661,0.0661,0.066,0,0,0.0197,0.0197,0.0355,0.0443,0.0603,0.064,0.0676,0.0791,0.0822,0.0893,0.0865,0.0898,0.0906,0.0947,0.0954,0.1065,0.0988,0.1052,0.1199,0.1189,0.121,0.1227,0.1196,0.1209,0.1065,0.1066,0.1066,0,0.0184,0.0378,0.041,0.0599,0.0673,0.0674,0.0849,0.0882,0.0968,0.1001,0.0952,0.1011,0.0995,0.1108,0.1161,0.112,0.1075,0.1129,0.1218,0.1234,0.1248,0.1212,0.1224,0.1077,0.1076,0.1075,0.1073,0,0.0458,0.0576,0.0678,0.0903,0.0967,0.1109,0.1164,0.1205,0.1191,0.1223,0.1304,0.1279,0.1311,0.1319,0.1282,0.1392,0.1316,0.1245,0.1175,0.1287,0.124,0.1248,0.1094,0.1089,0.1086,0.1083,0,0,0.0604,0.0825,0.0874,0.0975,0.1133,0.1211,0.1327,0.1442,0.1494,0.1531,0.1613,0.1668,0.162,0.1624,0.1578,0.1586,0.165,0.1473,0.1467,0.1467,0.1611,0.1523,0.1521,0.1587,0.159,0.1592,0.1539,0,0.0853,0.1145,0.1213,0.1444,0.1591,0.1576,0.1661,0.1721,0.1723,0.1773,0.1764,0.1809,0.1742,0.1746,0.1761,0.1666,0.168,0.167,0.1481,0.1476,0.1404,0.1531,0.1454,0.1397,0.1546,0.1547,0.1548,0,0.1184,0.1312,0.1553,0.1671,0.1739,0.1829,0.1898,0.1981,0.2026,0.2028,0.2072,0.2024,0.2075,0.1957,0.1914,0.1902,0.1796,0.1713,0.1706,0.1556,0.1404,0.1305,0.1404,0.1175,0.1558,0.1558,0.1557,0,0.1281,0.1559,0.1699,0.1759,0.1895,0.1961,0.2007,0.2064,0.2106,0.217,0.219,0.2225,0.2207,0.2125,0.1966,0.1934,0.1868,0.1785,0.1619,0.1609,0.1475,0.1449,0.1354,0.1766,0.1766,0.1766,0.1766,0,0.1502,0.1634,0.1734,0.1815,0.1941,0.2024,0.2132,0.2171,0.2238,0.2299,0.2306,0.2343,0.2241,0.2177,0.2033,0.186,0.1917,0.1687,0.1613,0.1548,0.153,0.1264,0.12,0.1764,0.1765,0.1765,0.1765,0,0.1569,0.166,0.1818,0.1952,0.1987,0.2052,0.2153,0.2223,0.2289,0.2361,0.2383,0.2421,0.2357,0.2231,0.2079,0.1924,0.1633,0.1686,0.1613,0.1533,0.116,0.1113,0.0955,0.0833,0.1513,0.1511,0.1509,0,0.1608,0.1702,0.1842,0.1896,0.1951,0.2051,0.2117,0.2213,0.228,0.24,0.2437,0.2435,0.2441,0.2218,0.1953,0.1715,0.1547,0.1466,0.1411,0.1172,0.1064,0.099,0.0895,0.1314,0.131,0.1308,0.1306,0,0.1653,0.1689,0.1776,0.1892,0.1972,0.2064,0.217,0.2223,0.2345,0.2422,0.2515,0.2546,0.2363,0.2128,0.1817,0.1624,0.129,0.1401,0.118,0.0953,0.0842,0.0676,0.1296,0.1282,0.1284,0.1286,0.1287,0.1288,0.1635,0.1675,0.1785,0.1889,0.1974,0.208,0.2169,0.2276,0.2386,0.2522,0.2546,0.2618,0.231,0.1896,0.1572,0.0991,0.1086,0.0822,0.08,0.0755,0.061,0.118,0.1059,0.106,0.1061,0.1062,0.1062,0,0.1633,0.1687,0.1785,0.1925,0.2023,0.2077,0.2214,0.2317,0.2448,0.2552,0.2635,0.257,0.2052,0.1595,0.0865,0.0463,0.0296,0.0273,0.015,0.0092,0.0605,0.0563,0.0296,0.0296,0.0296,0.0297,0.0297,0.0297,0.164,0.1715,0.1781,0.1945,0.2045,0.22,0.2283,0.2408,0.2518,0.2679,0.277,0.2836,0.2549,0.119,0.0208,-0.0041,-0.033,-0.0369,-0.047,-0.0132,-0.0084,-0.0038,-0.0099,-0.0499,-0.05,-0.1039,-0.1044,-0.1047]}],[{"header":{"parameterUnit":"m.s-1","parameterCategory":2,"la1":30.2991,"la2":30.254,"lo1":-89.0895,"lo2":-89.0444,"dx":0.0017,"dy":0.0017,"nx":28,"ny":28,"refTime":"2022-12-05T15:00:00:Z","depth":"2","parameterNumber":2,"parameterNumberName":"U-component_of_CURRENTS"},"data":[0,0,0,0,0,0,0,0,0,0,0,0,0,0,0,0,0,0,0,0,0,0,0,0,0,0,0,0,0,0,0,0,0,0,0,0,0,0,0,0,0,0,0,0,0,0,0,0,0,0,0,0,0,0,0,0,0,0,-0.0105,-0.0107,0,-0.0266,-0.0268,-0.027,-0.042,-0.0421,-0.0422,-0.0423,-0.055,-0.0552,-0.0554,0,0,0,0,0,0,0,0,0,0,0,0,0,-0.0035,-0.0035,-0.0105,-0.0107,-0.0108,-0.0265,-0.0268,-0.0271,-0.0419,-0.0421,-0.0423,-0.0424,-0.0549,-0.0552,-0.0554,0,0,0,0,0,0,0,0,0,0,0,0,0,-0.0122,-0.0035,-0.0105,-0.0197,-0.0207,-0.0265,-0.0268,-0.0272,-0.0419,-0.0421,-0.0423,-0.0425,-0.0548,-0.0551,-0.0554,-0.0535,0,0,-0.0564,-0.0566,0,0,0,0,0,0,0,0,-0.0117,-0.0125,-0.0182,-0.0191,-0.0201,-0.032,-0.029,-0.0356,-0.0418,-0.0344,-0.0423,-0.0426,-0.0464,-0.0475,-0.0509,-0.054,-0.0546,-0.0565,-0.0566,-0.0568,-0.0569,0,0,0,0,0,0,0,-0.0111,-0.012,-0.0175,-0.0183,-0.0195,-0.0267,-0.0281,-0.0304,-0.0395,-0.0351,-0.0361,-0.0369,-0.0471,-0.0506,-0.0513,-0.0548,-0.0564,-0.0567,-0.0569,-0.0571,-0.053,-0.0527,0,0,0,0,0,0,-0.0072,-0.0113,-0.0169,-0.0179,-0.0157,-0.0265,-0.0282,-0.0284,-0.0396,-0.0413,-0.0367,-0.0375,-0.0499,-0.0509,-0.0518,-0.0452,-0.0568,-0.0571,-0.0573,-0.0533,-0.053,-0.0526,0,0,0,0,0,0,-0.0069,-0.0075,-0.0163,-0.0146,-0.0162,-0.0263,-0.0266,-0.0286,-0.033,-0.0407,-0.0426,-0.039,-0.0501,-0.0513,-0.054,-0.046,-0.0572,-0.0575,-0.0537,-0.0532,-0.0528,-0.0351,0,0,0,0,0,0,-0.0066,-0.0073,-0.0069,-0.0143,-0.0161,-0.0202,-0.0264,-0.0288,-0.0329,-0.0342,-0.0432,-0.0447,-0.0504,-0.0534,-0.0543,-0.0466,-0.0578,-0.0541,-0.0535,-0.0529,-0.0361,-0.0341,-0.0324,0,0,0,0,0,-0.0063,-0.0073,-0.0068,-0.0075,-0.0149,-0.0201,-0.0218,-0.0302,-0.0327,-0.0348,-0.0399,-0.0444,-0.0503,-0.0536,-0.0546,-0.0468,-0.0543,-0.0536,-0.053,-0.0369,-0.0345,-0.0325,0,0,0,0,0,0,-0.0045,-0.0089,-0.0087,-0.0107,-0.0139,-0.0224,-0.026,-0.0289,-0.0348,-0.0359,-0.0428,-0.0445,-0.043,-0.0476,-0.0509,-0.0438,-0.052,-0.0515,-0.0394,-0.0372,-0.0354,-0.0345,-0.058,0,0,0,0,0,-0.0026,-0.0044,-0.008,-0.0091,-0.0108,-0.0169,-0.02,-0.0241,-0.0296,-0.0327,-0.038,-0.0412,-0.0406,-0.0416,-0.0443,-0.0415,-0.0441,-0.0364,-0.0345,-0.033,-0.0327,-0.0288,-0.0265,-0.0504,-0.0504,-0.0505,0,0,-0.001,-0.0044,-0.0046,-0.0087,-0.0127,-0.0142,-0.0197,-0.0239,-0.0239,-0.0324,-0.0353,-0.0362,-0.0388,-0.0357,-0.035,-0.0388,-0.0272,-0.0321,-0.0307,-0.0314,-0.0278,-0.0255,-0.0234,-0.05,-0.0501,-0.0501,0,0,0.0003,-0.0023,-0.0027,-0.0055,-0.0097,-0.0133,-0.0132,-0.0195,-0.0218,-0.0223,-0.0258,-0.0223,-0.0262,-0.024,-0.0233,-0.0127,-0.0181,-0.0123,-0.0018,0.0022,0.0042,0.0059,0.0071,0.0087,-0.0107,-0.0107,-0.0107,0,0.0026,0.0014,-0.0035,-0.0051,-0.0071,-0.0116,-0.0117,-0.0137,-0.0193,-0.0184,-0.0216,-0.0187,-0.0194,-0.0111,-0.0056,-0.0081,-0.0089,-0.0097,0.0047,0.0063,0.0077,0.0085,0.0101,-0.0098,-0.0099,-0.01,-0.0101,0,0.0055,0.003,0.0014,-0.0008,-0.0032,-0.0052,-0.007,-0.0079,-0.0091,-0.0094,-0.0036,-0.0033,-0.0012,0.0031,0.0026,0.0152,0.0103,0.0062,-0.0007,0.0112,0.0112,0.0126,-0.0084,-0.0088,-0.009,-0.0093,0,0,0.0128,0.0054,0.0048,0.0036,-0.0016,-0.003,-0.0018,-0.001,0.0019,0.0022,0.0073,0.0158,0.0171,0.0184,0.0205,0.0274,0.0407,0.0233,0.023,0.0246,0.0479,0.0514,0.053,0.039,0.0393,0.0396,0.0442,0,0.0165,0.0146,0.01,0.0089,0.0071,0.0032,0.005,0.006,0.007,0.0105,0.0168,0.022,0.0227,0.0275,0.0348,0.0377,0.0448,0.0396,0.0357,0.0355,0.0374,0.055,0.0543,0.059,0.0455,0.0457,0.0459,0,0.0209,0.0179,0.018,0.0126,0.0121,0.0121,0.0136,0.015,0.0196,0.0215,0.028,0.0298,0.0419,0.0402,0.0514,0.0476,0.0505,0.0526,0.0526,0.0502,0.0417,0.0445,0.0619,0.048,0.0478,0.0477,0.0475,0,0.0277,0.0226,0.0229,0.0212,0.0168,0.0175,0.0164,0.0191,0.0222,0.0291,0.0334,0.0417,0.0485,0.053,0.0589,0.0556,0.069,0.0627,0.068,0.0679,0.0637,0.0629,0.0721,0.0721,0.0721,0.0721,0.0721,0,0.0309,0.0297,0.026,0.0257,0.0266,0.0229,0.0263,0.0269,0.0315,0.0376,0.0405,0.0489,0.053,0.0598,0.0619,0.0709,0.0707,0.074,0.0722,0.07,0.0697,0.0553,0.0533,0.0723,0.0722,0.0722,0.0722,0,0.0347,0.0329,0.0324,0.03,0.0288,0.0303,0.0289,0.0321,0.0367,0.0449,0.0482,0.0567,0.0668,0.0691,0.0775,0.0769,0.0825,0.0851,0.0817,0.0798,0.0767,0.0756,0.0909,0.0911,0.0913,0.0914,0.0916,0,0.035,0.0359,0.0362,0.036,0.0335,0.0337,0.0334,0.035,0.0385,0.0509,0.056,0.0684,0.078,0.0894,0.0932,0.097,0.0921,0.0955,0.0916,0.0835,0.0801,0.0786,0.0772,0.0917,0.0919,0.092,0.092,0,0.035,0.0378,0.0384,0.0391,0.0386,0.0379,0.0379,0.0421,0.0472,0.056,0.0701,0.0794,0.0931,0.1012,0.106,0.1058,0.0943,0.0979,0.0934,0.0879,0.085,0.0813,0.0798,0.093,0.0929,0.0928,0.0927,0.0927,0.0357,0.0376,0.0409,0.0413,0.0411,0.0422,0.0435,0.0474,0.056,0.0693,0.0774,0.0907,0.0982,0.1088,0.108,0.1054,0.109,0.1021,0.1015,0.1008,0.101,0.0987,0.109,0.109,0.109,0.109,0.109,0,0.0346,0.0383,0.0404,0.043,0.0443,0.0428,0.0462,0.0498,0.0609,0.0743,0.0866,0.0907,0.1018,0.1054,0.1076,0.1082,0.1017,0.1005,0.0931,0.0927,0.0922,0.0914,0.0971,0.097,0.0969,0.0967,0,0,0.0343,0.0378,0.0406,0.0446,0.046,0.0476,0.05,0.0568,0.0661,0.0778,0.0867,0.1005,0.1086,0.1032,0.1041,0.102,0.0941,0.0972,0.1086,0.1001,0.0993,0.0972,0.0962,0,0,0,0,0]},{"header":{"parameterUnit":"m.s-1","parameterCategory":2,"la1":30.2991,"la2":30.254,"lo1":-89.0895,"lo2":-89.0444,"dx":0.0017,"dy":0.0017,"nx":28,"ny":28,"refTime":"2022-12-05T15:00:00:Z","depth":"2","parameterNumber":3,"parameterNumberName":"V-component_of_CURRENTS"},"data":[0,0,0,0,0,0,0,0,0,0,0,0,0,0,0,0,0,0,0,0,0,0,0,0,0,0,0,0,0,0,0,0,0,0,0,0,0,0,0,0,0,0,0,0,0,0,0,0,0,0,0,0,0,0,0,0,0,0,-0.0385,-0.0385,0,-0.0398,-0.0399,-0.04,-0.0425,-0.0425,-0.0424,-0.0424,-0.0252,-0.0248,-0.0244,0,0,0,0,0,0,0,0,0,0,0,0,0,-0.0386,-0.0387,-0.0385,-0.0384,-0.0384,-0.0397,-0.0399,-0.04,-0.0425,-0.0425,-0.0424,-0.0423,-0.0254,-0.0249,-0.0244,0,0,0,0,0,0,0,0,0,0,0,0,0,-0.0401,-0.0387,-0.0385,-0.039,-0.0389,-0.0397,-0.0399,-0.04,-0.0425,-0.0425,-0.0424,-0.0423,-0.0255,-0.0249,-0.0243,-0.0221,0,0,-0.0225,-0.0222,0,0,0,0,0,0,0,0,-0.0401,-0.0403,-0.039,-0.0389,-0.0389,-0.0399,-0.0336,-0.0327,-0.0425,-0.0423,-0.0424,-0.0423,-0.0278,-0.027,-0.0292,-0.0213,-0.0205,-0.0224,-0.022,-0.0218,-0.0216,0,0,0,0,0,0,0,-0.0399,-0.0402,-0.0401,-0.0389,-0.0388,-0.0391,-0.0394,-0.0336,-0.036,-0.0423,-0.0423,-0.0407,-0.0278,-0.0298,-0.0287,-0.0203,-0.0224,-0.0219,-0.0215,-0.0213,-0.0044,-0.0043,0,0,0,0,0,0,-0.0377,-0.0401,-0.0401,-0.0401,-0.0381,-0.0391,-0.0394,-0.0406,-0.0364,-0.0356,-0.0407,-0.0408,-0.0309,-0.0295,-0.0281,-0.0214,-0.0218,-0.0212,-0.0208,-0.0045,-0.0044,-0.0043,0,0,0,0,0,0,-0.0377,-0.0378,-0.04,-0.0391,-0.0392,-0.039,-0.0404,-0.0406,-0.0411,-0.0352,-0.0342,-0.0406,-0.0308,-0.029,-0.0226,-0.0208,-0.0209,-0.0204,-0.0046,-0.0045,-0.0044,-0.01,0,0,0,0,0,0,-0.0378,-0.0379,-0.0378,-0.039,-0.0391,-0.0395,-0.0403,-0.0407,-0.0397,-0.0398,-0.0347,-0.0332,-0.0306,-0.0236,-0.022,-0.0199,-0.0199,-0.0047,-0.0045,-0.0044,-0.01,-0.0101,-0.0103,0,0,0,0,0,-0.0379,-0.0363,-0.0379,-0.0377,-0.0392,-0.0394,-0.0397,-0.0399,-0.0398,-0.0402,-0.0369,-0.0333,-0.0215,-0.0231,-0.0212,-0.0189,-0.0048,-0.0046,-0.0044,-0.0099,-0.0101,-0.0103,0,0,0,0,0,0,-0.036,-0.0364,-0.0381,-0.037,-0.038,-0.0394,-0.0371,-0.0391,-0.0377,-0.0364,-0.0325,-0.0308,-0.0248,-0.0206,-0.0224,-0.0135,-0.0123,-0.0118,-0.0171,-0.0172,-0.0174,-0.0208,-0.0194,0,0,0,0,0,-0.0357,-0.0356,-0.0365,-0.0361,-0.0348,-0.0365,-0.0362,-0.0378,-0.0363,-0.0359,-0.0328,-0.0279,-0.0231,-0.0192,-0.0149,-0.0093,-0.0096,-0.0063,-0.0065,-0.0067,-0.0081,-0.0097,-0.0103,-0.0037,-0.0037,-0.0037,0,0,-0.0353,-0.035,-0.0353,-0.0357,-0.0353,-0.0356,-0.0363,-0.0354,-0.0367,-0.0333,-0.0317,-0.0282,-0.0219,-0.0174,-0.0141,-0.0131,-0.0083,-0.0065,-0.0067,-0.0081,-0.0096,-0.0103,-0.0109,-0.0036,-0.0036,-0.0037,0,0,-0.0341,-0.033,-0.0329,-0.033,-0.0322,-0.0332,-0.0325,-0.0338,-0.0342,-0.0331,-0.0309,-0.0277,-0.0197,-0.0175,-0.0144,-0.0121,-0.0098,-0.0082,-0.0109,-0.0124,-0.0131,-0.0137,-0.0144,-0.015,-0.0076,-0.0076,-0.0076,0,-0.0342,-0.0344,-0.0329,-0.0324,-0.0314,-0.0317,-0.032,-0.0327,-0.0333,-0.0327,-0.0319,-0.0254,-0.0207,-0.0162,-0.0165,-0.0127,-0.0129,-0.0111,-0.0131,-0.0137,-0.0142,-0.0148,-0.0155,-0.0079,-0.0078,-0.0078,-0.0078,0,-0.0349,-0.0338,-0.0317,-0.0325,-0.0316,-0.031,-0.0308,-0.0309,-0.0306,-0.0323,-0.029,-0.026,-0.0222,-0.0197,-0.0174,-0.0171,-0.0158,-0.0143,-0.0138,-0.0153,-0.0157,-0.0163,-0.0082,-0.0081,-0.0081,-0.008,0,0,-0.0406,-0.0341,-0.0345,-0.0326,-0.0316,-0.031,-0.0302,-0.0303,-0.0297,-0.0305,-0.0302,-0.0259,-0.0258,-0.0225,-0.0194,-0.021,-0.0252,-0.0195,-0.0195,-0.0225,-0.0283,-0.0335,-0.0346,-0.0244,-0.0245,-0.0246,-0.0271,0,-0.0428,-0.0405,-0.0379,-0.0361,-0.0333,-0.0317,-0.0308,-0.0309,-0.0302,-0.0299,-0.0283,-0.0258,-0.0257,-0.0236,-0.026,-0.0244,-0.027,-0.0247,-0.0245,-0.0245,-0.0309,-0.0356,-0.0327,-0.0353,-0.0276,-0.0277,-0.0278,0,-0.0464,-0.0435,-0.0414,-0.0346,-0.0334,-0.0333,-0.0306,-0.0304,-0.0292,-0.0285,-0.0282,-0.0266,-0.0272,-0.0276,-0.0302,-0.0285,-0.03,-0.0304,-0.0305,-0.0343,-0.0309,-0.0323,-0.0366,-0.0287,-0.0286,-0.0286,-0.0285,0,-0.0499,-0.0457,-0.0432,-0.0418,-0.0359,-0.0345,-0.0323,-0.0304,-0.0286,-0.0279,-0.0269,-0.0277,-0.027,-0.0303,-0.0325,-0.0309,-0.0371,-0.0338,-0.0402,-0.0404,-0.0377,-0.0376,-0.0386,-0.0386,-0.0386,-0.0386,-0.0386,0,-0.0518,-0.0489,-0.0442,-0.0423,-0.0392,-0.0354,-0.0322,-0.0305,-0.0283,-0.026,-0.0264,-0.0259,-0.0282,-0.0311,-0.0338,-0.0403,-0.0382,-0.0434,-0.0429,-0.0393,-0.0394,-0.0328,-0.0321,-0.0387,-0.0386,-0.0386,-0.0386,0,-0.0518,-0.0497,-0.0453,-0.0407,-0.0392,-0.0367,-0.0303,-0.028,-0.0268,-0.0242,-0.0237,-0.0248,-0.0289,-0.0329,-0.0375,-0.0416,-0.0466,-0.0495,-0.0456,-0.0449,-0.048,-0.0475,-0.056,-0.0562,-0.0564,-0.0566,-0.0567,0,-0.0495,-0.0481,-0.0444,-0.0424,-0.0391,-0.0348,-0.0313,-0.0277,-0.0252,-0.0235,-0.0227,-0.0259,-0.0267,-0.0375,-0.0454,-0.0527,-0.0524,-0.0569,-0.0549,-0.0519,-0.0505,-0.0496,-0.0489,-0.0515,-0.0516,-0.0516,-0.0517,0,-0.0448,-0.0453,-0.0423,-0.0398,-0.0363,-0.0314,-0.0264,-0.0246,-0.0209,-0.0185,-0.0171,-0.0176,-0.0282,-0.0353,-0.0488,-0.054,-0.0557,-0.0589,-0.0567,-0.0491,-0.0484,-0.0467,-0.046,-0.0523,-0.0523,-0.0522,-0.0522,-0.0522,-0.0414,-0.0395,-0.0384,-0.0352,-0.0323,-0.0281,-0.0232,-0.0188,-0.0142,-0.0076,-0.0111,-0.0073,-0.0205,-0.0338,-0.0474,-0.0611,-0.0612,-0.063,-0.0624,-0.0618,-0.0625,-0.0623,-0.0689,-0.0689,-0.069,-0.069,-0.069,0,-0.0362,-0.0353,-0.0328,-0.0297,-0.0263,-0.0256,-0.0198,-0.0136,-0.007,0.0002,0.0046,-0.0006,-0.0124,-0.0267,-0.0471,-0.0619,-0.0591,-0.0656,-0.0576,-0.0571,-0.0567,-0.0567,-0.0617,-0.0617,-0.0617,-0.0617,0,0,-0.0337,-0.0305,-0.0299,-0.0245,-0.0226,-0.0168,-0.013,-0.0043,0.003,0.0141,0.02,0.0193,-0.0026,-0.0143,-0.0362,-0.048,-0.0481,-0.0501,-0.055,-0.0428,-0.042,-0.0553,-0.055,0,0,0,0,0]}],[{"header":{"parameterUnit":"m.s-1","parameterCategory":2,"la1":30.2991,"la2":30.254,"lo1":-89.0895,"lo2":-89.0444,"dx":0.0017,"dy":0.0017,"nx":28,"ny":28,"refTime":"2022-12-05T15:00:00:Z","depth":"4","parameterNumber":2,"parameterNumberName":"U-component_of_CURRENTS"},"data":[0,0,0,0,0,0,0,0,0,0,0,0,0,0,0,0,0,0,0,0,0,0,0,0,0,0,0,0,0,0,0,0,0,0,0,0,0,0,0,0,0,0,0,0,0,0,0,0,0,0,0,0,0,0,0,0,0,0,0.0285,0.0285,0,0.0288,0.0288,0.0288,0.0285,0.0285,0.0285,0.0285,0.0259,0.0258,0.0257,0,0,0,0,0,0,0,0,0,0,0,0,0,0.0216,0.0217,0.0285,0.0285,0.0286,0.0288,0.0288,0.0288,0.0285,0.0285,0.0285,0.0285,0.0259,0.0258,0.0257,0,0,0,0,0,0,0,0,0,0,0,0,0,0.0234,0.0218,0.0285,0.0286,0.0286,0.0288,0.0288,0.0288,0.0285,0.0285,0.0285,0.0285,0.0259,0.0258,0.0257,0.0249,0,0,0.0254,0.0253,0,0,0,0,0,0,0,0,0.0233,0.0236,0.0285,0.0286,0.0286,0.0288,0.0254,0.0274,0.0285,0.0283,0.0285,0.0285,0.0267,0.0265,0.0263,0.0248,0.0247,0.0254,0.0253,0.0252,0.0252,0,0,0,0,0,0,0,0.0231,0.0235,0.0285,0.0286,0.0286,0.0265,0.0268,0.0257,0.0273,0.0283,0.0283,0.0287,0.0266,0.0264,0.0263,0.0246,0.0254,0.0253,0.0252,0.0252,0.0194,0.0194,0,0,0,0,0,0,0.0238,0.0235,0.0284,0.0285,0.0261,0.0266,0.027,0.0285,0.0273,0.0272,0.0287,0.0286,0.0266,0.0264,0.0262,0.0239,0.0252,0.0251,0.0251,0.0195,0.0194,0.0193,0,0,0,0,0,0,0.0237,0.0243,0.0284,0.026,0.0264,0.0268,0.0286,0.0286,0.029,0.0277,0.0275,0.0292,0.0266,0.0263,0.0245,0.0239,0.0251,0.025,0.0196,0.0195,0.0194,0.0202,0,0,0,0,0,0,0.0235,0.0243,0.0257,0.0261,0.0266,0.0287,0.0286,0.0286,0.0292,0.0292,0.028,0.0277,0.0266,0.0246,0.0243,0.0237,0.0249,0.0197,0.0196,0.0194,0.0203,0.0201,0.0199,0,0,0,0,0,0.0233,0.0251,0.0258,0.0264,0.0286,0.0288,0.0288,0.0289,0.0292,0.0293,0.0277,0.0278,0.0234,0.0245,0.0242,0.0235,0.0198,0.0196,0.0194,0.0203,0.0201,0.0199,0,0,0,0,0,0,0.0219,0.0253,0.026,0.0286,0.0288,0.0288,0.0295,0.0293,0.0283,0.0288,0.027,0.0266,0.0244,0.0237,0.0249,0.0211,0.0215,0.0212,0.0223,0.0221,0.0219,0.0247,0.0248,0,0,0,0,0,0.0226,0.0257,0.0268,0.0288,0.0294,0.0296,0.0299,0.03,0.0293,0.029,0.0278,0.026,0.0233,0.0226,0.0206,0.0191,0.0203,0.0182,0.0181,0.018,0.0198,0.0194,0.0195,0.0187,0.0187,0.0187,0,0,0.0223,0.0249,0.0262,0.0288,0.0295,0.0303,0.0298,0.0309,0.0307,0.0288,0.0282,0.0256,0.0226,0.0203,0.0193,0.0198,0.0188,0.0177,0.0177,0.0196,0.0192,0.0194,0.0195,0.0186,0.0186,0.0186,0,0,0.0236,0.026,0.029,0.0297,0.0318,0.0315,0.032,0.0323,0.0317,0.0305,0.0282,0.0253,0.0228,0.0199,0.0181,0.016,0.0177,0.0152,0.0172,0.0167,0.0169,0.017,0.0193,0.0196,0.0154,0.0154,0.0154,0,0.0227,0.0274,0.0291,0.0318,0.0326,0.0322,0.0337,0.0328,0.0319,0.0311,0.0306,0.0253,0.0224,0.0188,0.0176,0.0158,0.0174,0.0183,0.0168,0.0169,0.0171,0.0194,0.0197,0.0154,0.0154,0.0154,0.0154,0,0.0266,0.0295,0.0311,0.0348,0.0352,0.0365,0.0358,0.0356,0.0347,0.0332,0.0302,0.026,0.0234,0.0207,0.0186,0.0172,0.0187,0.0165,0.018,0.0173,0.0196,0.02,0.0155,0.0155,0.0155,0.0155,0,0,0.0259,0.0326,0.033,0.0353,0.0371,0.0378,0.0376,0.0368,0.037,0.0342,0.0341,0.0273,0.0261,0.0239,0.0205,0.0195,0.0207,0.0193,0.0193,0.023,0.0228,0.0297,0.0307,0.019,0.019,0.019,0.0245,0,0.0279,0.0338,0.0361,0.0392,0.0414,0.0412,0.0409,0.04,0.0383,0.0378,0.0331,0.0312,0.0269,0.0262,0.0242,0.0215,0.0216,0.0196,0.0219,0.022,0.0292,0.0313,0.0192,0.0248,0.0249,0.0249,0.025,0,0.0308,0.0347,0.0389,0.0426,0.0435,0.0447,0.0451,0.0451,0.0432,0.0423,0.0399,0.0371,0.0344,0.0314,0.0284,0.0279,0.0264,0.0244,0.0245,0.0314,0.0296,0.0252,0.0257,0.0256,0.0256,0.0255,0.0255,0,0.03,0.0359,0.0396,0.0409,0.0447,0.0461,0.0474,0.0464,0.0468,0.0463,0.0472,0.043,0.043,0.0392,0.036,0.0326,0.0353,0.0293,0.0341,0.0346,0.0265,0.0263,0.0287,0.0287,0.0287,0.0287,0.0287,0,0.0307,0.0336,0.0402,0.0421,0.0458,0.048,0.0505,0.0509,0.0521,0.0532,0.0504,0.0515,0.0453,0.0455,0.0404,0.0414,0.039,0.037,0.037,0.0266,0.0263,0.0268,0.0265,0.0289,0.0289,0.0288,0.0288,0,0.0286,0.033,0.0378,0.0437,0.0458,0.0485,0.0535,0.0549,0.0568,0.0591,0.0599,0.0596,0.0612,0.0572,0.0536,0.0494,0.0476,0.0485,0.0426,0.0417,0.0456,0.0452,0.0529,0.0532,0.0534,0.0536,0.0538,0,0.028,0.0307,0.0387,0.0419,0.0451,0.0499,0.0527,0.0563,0.0581,0.0636,0.0649,0.0693,0.0685,0.0696,0.0653,0.0617,0.0589,0.0582,0.047,0.0492,0.0483,0.0475,0.0469,0.0542,0.0543,0.0544,0.0544,0,0.0266,0.03,0.0342,0.0412,0.0459,0.0504,0.0554,0.0572,0.0617,0.0646,0.069,0.0703,0.0748,0.0723,0.0738,0.0685,0.058,0.0606,0.0598,0.0493,0.0508,0.0496,0.0486,0.0553,0.0552,0.0551,0.055,0,0.0253,0.0281,0.0344,0.0403,0.0458,0.0499,0.0526,0.0574,0.0605,0.0665,0.069,0.073,0.0758,0.0766,0.0762,0.0753,0.07,0.063,0.0619,0.0609,0.0609,0.064,0.0747,0,0,0,0,0,0.0239,0.0277,0.0331,0.0398,0.045,0.0484,0.054,0.0565,0.0618,0.0645,0.0665,0.0704,0.0734,0.0755,0.0754,0.0782,0.0694,0.0778,0.0605,0.0601,0.0591,0.0583,0,0,0,0,0,0,0.0234,0.0284,0.0325,0.0383,0.0422,0.0475,0.051,0.0544,0.0562,0.0615,0.0634,0.0677,0.0709,0.0729,0.0744,0.0751,0.0632,0.0808,0.0807,0.0607,0.0598,0.059,0.0578,0,0,0,0,0]},{"header":{"parameterUnit":"m.s-1","parameterCategory":2,"la1":30.2991,"la2":30.254,"lo1":-89.0895,"lo2":-89.0444,"dx":0.0017,"dy":0.0017,"nx":28,"ny":28,"refTime":"2022-12-05T15:00:00:Z","depth":"4","parameterNumber":3,"parameterNumberName":"V-component_of_CURRENTS"},"data":[0,0,0,0,0,0,0,0,0,0,0,0,0,0,0,0,0,0,0,0,0,0,0,0,0,0,0,0,0,0,0,0,0,0,0,0,0,0,0,0,0,0,0,0,0,0,0,0,0,0,0,0,0,0,0,0,0,0,-0.0243,-0.0243,0,-0.0288,-0.0288,-0.0289,-0.0318,-0.0318,-0.0318,-0.0319,-0.0397,-0.0399,-0.04,0,0,0,0,0,0,0,0,0,0,0,0,0,-0.0185,-0.0186,-0.0243,-0.0243,-0.0244,-0.0288,-0.0288,-0.0289,-0.0318,-0.0318,-0.0319,-0.0319,-0.0396,-0.0398,-0.0401,0,0,0,0,0,0,0,0,0,0,0,0,0,-0.0217,-0.0186,-0.0242,-0.0264,-0.0267,-0.0288,-0.0288,-0.0289,-0.0318,-0.0318,-0.0319,-0.0319,-0.0395,-0.0398,-0.0401,-0.041,0,0,-0.0409,-0.041,0,0,0,0,0,0,0,0,-0.0215,-0.0219,-0.026,-0.0263,-0.0266,-0.0298,-0.0297,-0.0332,-0.0318,-0.0298,-0.0319,-0.0319,-0.0367,-0.0372,-0.0378,-0.0414,-0.0417,-0.041,-0.0411,-0.0412,-0.0413,0,0,0,0,0,0,0,-0.0213,-0.0217,-0.026,-0.0261,-0.0264,-0.0273,-0.0278,-0.0303,-0.033,-0.0299,-0.0302,-0.0308,-0.0369,-0.0376,-0.038,-0.0419,-0.0409,-0.0412,-0.0414,-0.0415,-0.0529,-0.053,0,0,0,0,0,0,-0.0209,-0.0215,-0.0258,-0.0261,-0.0242,-0.0274,-0.0279,-0.0287,-0.0329,-0.0336,-0.0308,-0.0309,-0.0371,-0.0377,-0.0383,-0.0445,-0.0412,-0.0415,-0.0417,-0.0527,-0.0529,-0.053,0,0,0,0,0,0,-0.0207,-0.0212,-0.0257,-0.024,-0.0246,-0.0274,-0.0283,-0.0288,-0.0302,-0.0335,-0.0342,-0.0318,-0.0371,-0.038,-0.0423,-0.0447,-0.0416,-0.0419,-0.0526,-0.0528,-0.053,-0.0538,0,0,0,0,0,0,-0.0205,-0.0211,-0.0214,-0.024,-0.0247,-0.0278,-0.0283,-0.0288,-0.0305,-0.0307,-0.0346,-0.0353,-0.0372,-0.0419,-0.0426,-0.045,-0.0421,-0.0524,-0.0527,-0.0529,-0.0536,-0.054,-0.0544,0,0,0,0,0,-0.0203,-0.0213,-0.0214,-0.0219,-0.0251,-0.0278,-0.0283,-0.0304,-0.0305,-0.0316,-0.0347,-0.0352,-0.044,-0.0422,-0.043,-0.0455,-0.0523,-0.0526,-0.0529,-0.0535,-0.054,-0.0544,0,0,0,0,0,0,-0.0188,-0.0217,-0.0219,-0.0236,-0.0257,-0.0284,-0.0298,-0.0305,-0.0335,-0.0343,-0.0366,-0.0376,-0.0427,-0.0439,-0.0418,-0.0498,-0.0484,-0.0489,-0.0486,-0.049,-0.0494,-0.0477,-0.0423,0,0,0,0,0,-0.0185,-0.02,-0.0225,-0.0237,-0.025,-0.0271,-0.0284,-0.0299,-0.0328,-0.0341,-0.0371,-0.0406,-0.0444,-0.0464,-0.0501,-0.0537,-0.0538,-0.0561,-0.0565,-0.0567,-0.0561,-0.0585,-0.059,-0.0541,-0.0541,-0.054,0,0,-0.0181,-0.0199,-0.0206,-0.0235,-0.0253,-0.0275,-0.028,-0.0308,-0.0325,-0.0346,-0.0387,-0.0423,-0.0458,-0.0507,-0.0531,-0.052,-0.0584,-0.0571,-0.0574,-0.0565,-0.0589,-0.0593,-0.0598,-0.0543,-0.0542,-0.0542,0,0,-0.0186,-0.0199,-0.0215,-0.0233,-0.0264,-0.0282,-0.029,-0.0326,-0.0344,-0.0388,-0.041,-0.0455,-0.0512,-0.054,-0.0561,-0.0605,-0.0606,-0.0624,-0.0626,-0.065,-0.0654,-0.0657,-0.0662,-0.0666,-0.0622,-0.0622,-0.0622,0,-0.0185,-0.02,-0.0223,-0.0242,-0.0256,-0.0285,-0.0303,-0.0326,-0.0372,-0.0389,-0.0408,-0.0495,-0.0528,-0.0572,-0.0595,-0.0612,-0.0619,-0.0602,-0.0653,-0.0656,-0.0659,-0.0664,-0.0668,-0.0623,-0.0622,-0.0622,-0.0622,0,-0.0203,-0.0211,-0.0224,-0.0255,-0.0274,-0.0298,-0.0331,-0.0357,-0.0387,-0.0414,-0.0474,-0.0524,-0.0571,-0.0597,-0.0613,-0.0654,-0.0649,-0.0655,-0.0634,-0.0664,-0.0668,-0.0672,-0.0624,-0.0623,-0.0623,-0.0623,0,0,-0.0236,-0.0234,-0.0247,-0.0242,-0.0283,-0.0301,-0.0333,-0.037,-0.0386,-0.0449,-0.0478,-0.0556,-0.0581,-0.0605,-0.0633,-0.0658,-0.0693,-0.0666,-0.0667,-0.0659,-0.0735,-0.0685,-0.0684,-0.0708,-0.0709,-0.0709,-0.0727,0,-0.0251,-0.026,-0.0269,-0.0285,-0.0288,-0.0314,-0.0336,-0.0372,-0.0412,-0.045,-0.0506,-0.0555,-0.0584,-0.0611,-0.0643,-0.0685,-0.0704,-0.0686,-0.0718,-0.0718,-0.066,-0.0687,-0.0712,-0.073,-0.0731,-0.0731,-0.0732,0,-0.0281,-0.0277,-0.0281,-0.0272,-0.0282,-0.0301,-0.0335,-0.0358,-0.041,-0.0441,-0.0495,-0.0538,-0.0595,-0.0614,-0.0686,-0.0675,-0.0703,-0.073,-0.0731,-0.0681,-0.0675,-0.0697,-0.0738,-0.0738,-0.0737,-0.0737,-0.0736,0,-0.0285,-0.0293,-0.0287,-0.0289,-0.0292,-0.0304,-0.0321,-0.0362,-0.0378,-0.0436,-0.0458,-0.053,-0.0569,-0.0625,-0.0687,-0.0691,-0.0754,-0.0764,-0.074,-0.0736,-0.077,-0.0766,-0.0803,-0.0803,-0.0803,-0.0803,-0.0803,0,-0.0293,-0.0291,-0.0285,-0.0281,-0.0284,-0.0297,-0.0314,-0.0336,-0.0372,-0.0383,-0.0452,-0.047,-0.0575,-0.0625,-0.0679,-0.0717,-0.0748,-0.0738,-0.074,-0.0774,-0.0771,-0.0772,-0.0768,-0.0803,-0.0803,-0.0803,-0.0803,0,-0.0283,-0.028,-0.0268,-0.0272,-0.0276,-0.0282,-0.0297,-0.0306,-0.0341,-0.0355,-0.0373,-0.0439,-0.0493,-0.058,-0.0665,-0.0694,-0.0743,-0.0744,-0.0761,-0.0765,-0.071,-0.0707,-0.0721,-0.0719,-0.0718,-0.0717,-0.0716,0,-0.0266,-0.0259,-0.0261,-0.0255,-0.0256,-0.0264,-0.0265,-0.0293,-0.0294,-0.0321,-0.0322,-0.0381,-0.0424,-0.0493,-0.0598,-0.0688,-0.0697,-0.072,-0.0729,-0.0702,-0.0703,-0.0702,-0.0701,-0.0714,-0.0714,-0.0713,-0.0713,0,-0.0236,-0.0247,-0.024,-0.0228,-0.0228,-0.0219,-0.022,-0.0213,-0.0232,-0.0266,-0.0251,-0.0301,-0.0354,-0.0445,-0.0518,-0.0587,-0.071,-0.0706,-0.071,-0.0719,-0.0694,-0.0696,-0.0696,-0.0708,-0.0709,-0.0709,-0.071,0,-0.0224,-0.0215,-0.0212,-0.02,-0.0193,-0.0169,-0.0174,-0.0159,-0.0161,-0.0182,-0.0174,-0.0242,-0.03,-0.0391,-0.046,-0.0525,-0.0541,-0.0557,-0.0568,-0.0575,-0.0532,-0.048,-0.0427,0,0,0,0,0,-0.0209,-0.0195,-0.0179,-0.016,-0.0151,-0.0146,-0.0138,-0.0144,-0.0156,-0.0122,-0.0142,-0.018,-0.0268,-0.0323,-0.0372,-0.0457,-0.0574,-0.0518,-0.0603,-0.0683,-0.0688,-0.066,0,0,0,0,0,0,-0.0201,-0.0188,-0.0171,-0.013,-0.0111,-0.0095,-0.0087,-0.0093,-0.0075,-0.0092,-0.0136,-0.0176,-0.0272,-0.0229,-0.0365,-0.0392,-0.0447,-0.0576,-0.0577,-0.068,-0.0685,-0.0689,-0.0662,0,0,0,0,0]}]]